ROUEN current weather conditions

sailwx.info

Wind from 220 at 8 knots

Air temperature 4.0° C
Visibility: greater than 5.4 NM
Dewpoint 3.0° C

Last reported at 2019-Nov-14 04:30 UTC.
Time now 2019-Nov-14 06:19 UTC

Location: N 49°23' E 001°11'.
View on Google Maps.

See reports from other nearby stations

  
Tides and Currents Weather Stations Pressure Air Temp Water Temp Dewpoint Dewpoint Depression Visibility Wind Speed Wind Dir Waves Ship Positions
date/time (UTC)wind fromknots sea level pressurealtimeterstation pressurevisibilityair tempwater tempwave heightnotes
2019-Nov-14 04:30 220 8 5.4 4.0
2019-Nov-14 04:00 220 12 5.4 4.0
2019-Nov-14 03:30 210 11 5.4 4.0
2019-Nov-14 03:00 220 9 5.4 4.0
2019-Nov-14 02:30 210 13 5.4 4.0
2019-Nov-14 02:00 220 13 5.4 4.0
2019-Nov-14 01:30 220 13 5.4 5.0
2019-Nov-14 01:00 210 15 5.4 5.0
2019-Nov-14 00:30 160 15 3.8 6.0 Light rain.
2019-Nov-14 00:00 160 14 5.4 6.0 Light rain.
2019-Nov-13 23:30 160 17 5.4 6.0 Light rain.
2019-Nov-13 23:00 150 15 5.4 6.0 Rain.
2019-Nov-13 22:30 150 14 5.4 6.0 Light rain.
2019-Nov-13 22:00 160 17 5.4 6.0 Light rain.
2019-Nov-13 21:30 150 13 5.4 6.0
2019-Nov-13 21:00 160 13 5.4 6.0
2019-Nov-13 20:30 150 13 5.4 6.0
2019-Nov-13 20:00 160 11 5.4 6.0
2019-Nov-13 19:30 150 9 5.4 5.0
2019-Nov-13 19:00 170 9 5.4 6.0
2019-Nov-13 18:30 170 11 5.4 6.0
2019-Nov-13 18:00 170 7 5.4 6.0
2019-Nov-13 17:30 170 6 5.4 7.0
2019-Nov-13 17:00 180 8 5.4 7.0
2019-Nov-13 16:30 190 9 5.4 7.0
2019-Nov-13 16:00 200 8 5.4 7.0
2019-Nov-13 15:30 210 9 5.4 8.0
2019-Nov-13 15:00 210 9 5.4 8.0
2019-Nov-13 14:30 220 11 5.4 9.0
2019-Nov-13 14:00 220 9 5.4 9.0
2019-Nov-13 13:30 210 7 5.4 9.0
2019-Nov-13 13:00 210 7 5.4 8.0
2019-Nov-13 12:30 210 7 5.4 8.0
2019-Nov-13 12:00 210 8 5.4 9.0
2019-Nov-13 11:30 230 5 5.4 8.0
2019-Nov-13 11:00 260 6 5.4 7.0
2019-Nov-13 10:30 280 8 5.4 7.0
2019-Nov-13 10:00 250 9 5.4 8.0
2019-Nov-13 09:30 260 6 5.4 7.0
2019-Nov-13 09:00 240 6 5.4 6.0
2019-Nov-13 08:30 230 7 5.4 6.0
2019-Nov-13 08:00 210 4 5.4 6.0
2019-Nov-13 07:30 220 4 5.4 5.0
2019-Nov-13 07:00 220 6 5.4 5.0
2019-Nov-13 06:30 260 5 5.4 5.0
2019-Nov-13 06:00 250 5 5.4 5.0
2019-Nov-13 05:30 250 5 5.4 5.0
2019-Nov-13 05:00 260 5 4.3 6.0 Light rain.
2019-Nov-13 04:30 250 5 4.9 5.0
2019-Nov-13 04:00 220 4 5.4 5.0
2019-Nov-13 03:30 250 5 5.4 6.0 Light rain.
2019-Nov-13 03:00 220 6 3.8 5.0 Light rain.
2019-Nov-13 02:30 220 2 5.4 5.0 Light drizzle.
2019-Nov-13 02:00 260 5 5.4 5.0
2019-Nov-13 01:30 230 6 3.8 5.0
2019-Nov-13 01:00 230 6 5.4 5.0
2019-Nov-13 00:30 230 9 5.4 5.0
2019-Nov-13 00:00 220 7 5.4 5.0
2019-Nov-12 23:30 230 7 4.9 5.0 Light rain.
2019-Nov-12 23:00 240 6 5.4 5.0
2019-Nov-12 22:30 220 6 5.4 5.0
2019-Nov-12 22:00 210 6 5.4 5.0 Light rain.
2019-Nov-12 21:30 230 6 5.4 5.0
2019-Nov-12 21:00 230 9 3.2 5.0 Rain.
2019-Nov-12 20:30 220 9 5.4 4.0 Light rain.
2019-Nov-12 20:00 220 8 5.4 4.0 Light rain.
2019-Nov-12 19:30 220 9 5.4 4.0 Light rain.
2019-Nov-12 19:00 210 7 5.4 4.0 Light drizzle.
2019-Nov-12 18:30 210 9 5.4 4.0
2019-Nov-12 18:00 200 9 5.4 4.0
2019-Nov-12 17:30 200 9 5.4 4.0
2019-Nov-12 17:00 190 9 5.4 4.0
2019-Nov-12 16:30 190 7 5.4 4.0
2019-Nov-12 16:00 200 6 5.4 5.0
2019-Nov-12 15:30 270 5 5.4 5.0 Light rain.
2019-Nov-12 15:00 240 6 5.4 5.0
2019-Nov-12 14:30 240 8 5.4 5.0
2019-Nov-12 14:00 250 8 5.4 5.0
2019-Nov-12 13:30 240 9 5.4 4.0
2019-Nov-12 13:00 250 9 5.4 5.0 Rain.
2019-Nov-12 12:30 250 9 5.4 5.0
2019-Nov-12 12:00 240 9 5.4 5.0 Light rain.
2019-Nov-12 11:30 210 11 4.9 5.0 Rain.
2019-Nov-12 11:00 220 11 5.4 5.0 Light rain.
2019-Nov-12 10:30 240 9 5.4 4.0 Light rain.
2019-Nov-12 10:00 230 6 5.4 4.0 Light rain.
2019-Nov-12 09:30 240 7 5.4 4.0
2019-Nov-12 09:00 230 9 5.4 4.0
2019-Nov-12 08:30 260 7 5.4 4.0
2019-Nov-12 08:00 290 5 5.4 4.0 Heavy rain.
2019-Nov-12 07:30 210 6 5.4 4.0
2019-Nov-12 07:00 260 4 5.4 3.0
2019-Nov-12 06:30 250 9 5.4 4.0
2019-Nov-12 06:00 220 8 5.4 4.0